Theta_e
319 323 325 324 324 322 322 322 321 321 320 320 319 318 318 317 318 319 320 320 320 321 321 322 323 324 318 306 306 315 322 315 314 312 309 307 305 305 301 302 303 301 302 302 304 304 304
319 320 322 324 324 324 323 322 322 321 321 320 319 319 318 318 318 319 320 320 320 320 320 321 323 322 311 300 316 316 313 312 312 311 309 308 306 307 303 303 302 303 302 302 303 304 303
321 322 321 322 324 324 324 323 323 322 321 320 319 318 318 317 317 318 319 319 320 320 320 321 323 316 306 304 317 315 312 311 312 311 308 309 309 306 306 302 304 303 300 302 302 303 302
319 320 320 323 322 322 322 323 323 322 321 320 319 318 318 318 317 318 319 319 320 320 320 321 323 314 302 312 317 311 312 311 312 312 311 311 311 308 306 306 303 300 300 296 302 302 302
315 317 317 319 319 320 321 322 323 323 322 320 319 318 318 318 318 318 319 320 320 319 320 321 313 308 300 316 310 313 311 308 310 310 309 310 310 306 305 301 298 300 294 296 299 302 301
312 313 314 314 316 317 317 318 319 319 319 321 319 319 319 319 318 319 320 319 318 318 317 314 311 302 303 302 311 311 311 310 308 308 306 306 305 301 301 299 291 294 295 296 296 299 299
308 310 311 312 312 313 314 315 315 316 318 318 320 320 319 319 319 320 320 312 306 304 307 301 300 298 301 309 311 309 309 307 307 306 300 303 297 295 298 299 299 297 296 295 298 299 298
308 307 307 309 309 310 311 313 314 314 314 316 317 319 320 320 320 320 319 310 308 310 303 306 304 303 305 309 303 307 309 304 303 299 302 298 295 300 301 300 298 297 295 295 298 299 296
307 308 307 306 307 307 307 310 312 313 313 313 314 316 319 320 319 319 317 312 316 313 304 306 305 302 303 305 301 304 307 304 300 298 298 296 297 300 298 297 295 296 295 295 295 297 298
304 305 305 306 307 306 306 306 308 310 311 312 312 313 315 318 315 318 314 318 318 313 299 300 301 304 303 304 298 307 308 304 300 296 298 297 300 297 296 295 297 292 298 297 295 293 289
302 303 304 304 305 305 307 307 306 307 309 310 312 311 311 318 315 312 314 316 316 313 286 302 298 307 303 300 300 300 306 303 298 297 298 295 296 296 294 295 298 295 297 296 296 294 293
302 302 302 303 303 303 303 304 307 306 307 308 309 311 311 314 314 315 317 315 311 293 284 295 299 298 297 298 297 300 301 304 302 298 298 297 299 299 298 297 298 298 296 296 295 293 286
303 303 302 303 303 302 302 303 303 306 306 306 307 309 309 309 310 318 316 311 290 285 297 293 293 297 297 295 295 297 295 294 293 289 290 294 295 298 298 294 296 297 293 286 285 286 285
303 302 302 302 302 303 301 301 302 303 306 304 305 307 309 308 312 317 311 297 284 293 294 297 296 295 293 295 294 295 295 292 296 295 291 289 287 294 297 296 294 293 293 288 282 284 287
303 303 302 302 301 301 301 301 301 303 304 306 305 306 306 310 310 313 303 287 289 294 297 295 295 292 292 294 294 293 293 293 296 297 290 289 289 296 297 298 298 293 289 296 289 288 284
304 303 304 302 300 301 300 301 301 302 303 305 301 301 302 310 311 309 296 290 293 298 298 298 291 295 292 292 291 292 293 296 295 298 298 294 288 293 294 296 296 294 297 288 288 283 281
304 303 303 303 302 302 301 300 301 303 304 305 301 293 301 309 311 300 289 291 294 299 299 295 294 293 294 292 293 291 292 295 297 295 298 295 292 289 292 291 291 291 289 291 291 289 284
303 304 304 303 303 303 302 301 301 302 303 302 297 287 304 308 294 294 290 293 296 295 299 298 298 296 294 294 293 293 292 295 298 297 292 296 292 288 290 296 297 295 292 292 287 285 288
304 304 305 304 304 303 302 302 302 301 302 300 292 292 305 304 286 289 292 292 294 293 295 295 294 296 297 293 289 293 295 299 298 297 292 294 290 284 287 292 292 290 293 293 293 291 288
303 303 304 305 304 304 303 302 302 302 302 299 293 285 292 295 296 289 287 287 288 294 294 296 294 297 294 292 295 291 293 296 298 297 296 296 290 288 286 290 293 288 290 293 291 286 287
303 303 304 304 304 304 304 303 302 301 302 298 292 287 291 285 286 288 289 288 286 286 293 294 291 292 292 288 290 290 292 293 295 296 295 292 286 288 291 293 293 293 292 292 289 290 286
302 303 303 303 304 304 303 304 303 303 303 294 287 287 291 289 290 287 288 286 285 287 289 287 288 290 291 288 289 287 289 290 290 294 293 293 286 288 286 290 291 288 292 293 293 293 292
300 301 302 302 303 303 304 304 303 302 302 294 294 293 291 287 286 287 285 286 287 289 290 291 290 289 288 290 293 294 294 293 292 289 288 286 286 285 282 288 286 282 288 291 293 295 294
299 300 300 302 302 303 303 304 303 303 302 298 296 291 286 283 285 286 287 288 287 289 288 290 292 290 293 296 294 293 292 291 290 290 292 286 285 284 281 283 276 288 295 295 293 295 297
297 298 299 300 301 302 302 303 303 303 303 298 299 294 286 283 287 286 286 286 287 290 288 289 289 292 295 291 285 281 282 282 283 286 289 290 286 281 278 278 283 286 290 290 289 289 297
296 296 297 298 299 300 302 303 303 303 303 298 298 299 292 284 284 288 286 287 285 285 285 286 290 293 292 287 282 276 274 278 279 284 288 289 290 283 282 277 275 285 291 295 295 284 292
294 295 296 297 298 299 299 302 303 303 303 299 295 299 292 284 288 288 285 285 288 287 284 284 285 285 289 283 279 277 277 282 275 277 280 282 282 280 280 278 282 291 292 294 282 284 289
294 294 295 295 297 298 299 299 302 303 303 299 294 298 292 286 288 289 289 287 287 288 283 284 284 283 283 280 279 279 278 281 279 281 280 280 279 280 282 278 276 292 290 286 288 291 290
293 293 294 294 295 296 297 297 301 302 302 302 291 296 298 288 289 293 292 293 292 291 289 285 285 284 286 283 284 284 280 282 280 275 284 278 282 281 284 284 291 292 292 294 294 292 292
Wind_Speed
0 7 10 11 13 13 11 11 9 8 6 6 5 4 3 2 4 4 6 7 8 10 11 13 13 12 4 5 0 4 1 2 3 4 6 7 8 7 9 5 5 7 3 3 1 3 3
6 2 4 10 11 11 11 9 10 9 8 7 4 4 3 1 3 5 6 7 8 9 11 13 12 16 5 7 2 2 1 2 2 6 5 6 4 4 2 3 8 2 4 4 4 5 3
23 8 5 4 12 10 10 10 9 8 7 6 5 4 2 2 2 4 6 7 8 10 11 13 13 6 4 2 2 1 2 1 0 2 4 1 1 6 4 4 2 2 5 7 9 7 3
19 22 22 8 6 7 5 7 7 7 7 7 6 5 2 3 4 5 6 7 7 9 10 10 10 5 4 1 4 1 3 3 3 3 4 3 1 5 3 4 4 5 4 9 7 7 4
17 19 19 17 19 16 14 2 3 5 6 5 4 4 3 3 4 5 9 10 8 6 6 8 5 4 2 3 3 1 1 3 4 4 5 4 1 2 4 6 6 7 9 11 7 7 4
15 16 16 18 17 17 17 15 13 12 6 4 5 4 3 5 4 6 10 7 2 3 3 3 2 4 5 4 2 1 2 3 2 8 6 3 4 7 7 9 11 11 9 8 11 6 7
12 14 15 14 14 15 17 14 14 13 12 13 5 4 4 5 5 7 7 3 5 4 4 3 2 4 2 4 2 2 1 4 4 7 9 4 9 10 14 14 14 6 7 9 2 4 5
11 10 11 12 12 13 14 15 16 14 13 12 9 4 7 6 4 8 5 1 3 5 4 6 6 4 3 2 3 6 6 9 7 10 5 5 13 14 3 0 6 10 13 14 14 3 5
11 12 11 8 10 11 12 13 14 14 13 12 11 9 3 7 4 5 2 3 2 2 4 3 4 5 4 8 4 10 12 6 8 14 12 16 2 8 7 7 10 14 15 13 14 2 13
7 8 9 11 10 8 9 10 11 12 12 12 11 9 8 4 4 4 3 3 3 3 5 8 8 5 6 6 7 2 11 4 5 12 13 12 8 6 10 15 12 16 12 14 12 8 8
5 6 7 8 9 9 10 8 8 8 11 12 12 12 12 6 3 4 4 4 2 1 5 8 5 4 2 9 7 4 1 5 11 10 7 5 9 12 13 10 10 4 3 5 6 9 11
4 6 7 8 7 8 7 8 11 9 9 11 13 13 15 2 0 1 5 4 3 5 9 6 5 6 8 6 2 4 6 0 4 6 7 6 1 5 7 4 6 9 6 4 2 5 11
9 8 7 8 9 8 7 10 9 10 6 8 11 13 8 3 1 3 5 3 4 6 2 7 5 6 10 8 7 7 11 13 13 10 17 13 10 4 3 6 4 10 7 4 6 7 13
9 8 8 9 8 7 7 7 10 9 9 5 8 9 4 3 3 2 2 3 5 5 5 4 3 6 8 8 6 7 8 15 20 16 8 15 12 16 14 16 10 15 15 8 10 8 13
13 9 10 10 8 8 6 7 8 10 8 5 7 2 3 1 2 2 2 6 5 6 1 8 6 6 8 5 3 10 15 15 14 20 13 12 13 4 3 11 15 8 12 13 14 2 5
16 10 11 12 8 7 4 6 8 9 7 4 3 2 3 2 4 2 3 12 8 2 2 6 10 3 7 10 9 10 11 3 17 11 18 8 17 4 4 3 8 9 2 8 8 7 12
18 15 15 14 12 11 9 9 8 7 5 7 3 3 3 5 4 4 11 8 9 3 6 3 6 4 4 1 10 7 2 2 6 0 13 11 7 4 4 12 15 9 11 8 6 10 8
17 17 19 18 17 16 15 11 8 7 5 6 3 4 3 8 8 6 12 8 10 10 13 8 7 10 10 8 7 8 9 4 1 6 6 9 6 13 19 6 7 14 22 23 11 12 7
20 20 21 21 18 18 17 15 12 10 7 2 3 4 2 7 10 13 12 14 11 11 14 11 14 11 10 10 7 10 10 5 3 3 4 4 6 3 5 11 2 8 15 14 15 9 10
22 20 18 20 21 20 18 18 16 14 11 2 3 5 4 4 10 13 18 16 17 10 13 16 8 12 13 14 12 5 4 2 6 4 6 6 4 10 11 6 4 6 17 19 17 11 19
22 22 22 21 21 21 20 23 21 18 14 4 4 6 8 9 13 12 14 9 20 14 15 13 10 19 15 12 13 9 10 6 7 8 7 2 5 13 21 22 23 20 14 12 19 23 23
22 23 23 23 22 24 23 23 23 20 19 5 4 4 3 8 16 20 14 17 17 19 12 13 17 14 18 18 18 13 14 13 9 9 7 8 6 9 18 22 19 20 22 24 24 25 24
22 22 25 26 25 24 27 24 26 25 20 7 4 1 4 8 8 14 19 22 10 15 16 15 11 15 12 12 8 5 2 2 4 2 1 3 1 3 12 11 6 8 23 24 27 27 24
25 23 23 25 26 25 26 27 26 29 27 8 5 3 3 9 11 16 11 22 22 13 15 9 10 9 5 4 0 3 7 9 12 15 14 8 7 3 7 8 11 6 10 9 15 20 21
28 28 25 24 26 27 27 27 27 30 33 12 6 7 4 5 12 17 20 13 11 18 15 14 9 3 2 4 2 3 4 3 12 17 19 18 12 9 12 18 20 24 22 13 14 19 16
28 27 29 25 27 23 28 28 30 28 31 15 10 8 5 5 12 12 12 16 9 8 4 2 1 3 4 2 3 6 6 2 3 2 5 12 16 12 12 12 15 13 14 11 5 9 14
25 28 27 28 27 26 21 28 29 30 30 14 5 13 8 6 11 11 10 9 7 8 5 4 5 2 1 6 7 9 11 4 7 5 6 5 5 14 14 13 7 8 8 5 13 7 14
28 29 28 28 30 28 26 26 30 31 30 20 8 15 12 5 10 18 15 13 10 11 9 5 5 2 5 10 8 8 8 10 12 14 6 10 7 9 8 10 16 3 3 2 2 12 11
27 27 31 30 30 30 28 29 27 31 32 29 5 11 12 5 2 14 14 16 16 14 10 5 1 4 6 7 7 5 6 5 11 12 13 14 15 10 9 5 4 6 6 9 6 9 5
Wind_Direction
255 272 207 192 192 184 185 179 186 173 175 175 160 136 116 26 344 347 348 344 344 338 333 336 331 326 276 210 143 101 117 167 207 215 207 215 215 218 224 207 187 230 211 211 166 202 225
158 168 303 191 196 184 182 186 184 173 187 180 182 164 156 202 321 324 329 332 332 330 329 330 326 315 257 233 53 76 99 152 190 212 185 216 267 237 256 234 231 92 218 223 208 215 209
34 270 248 239 205 179 181 178 181 179 180 189 181 190 201 251 295 313 314 317 322 320 326 324 320 306 264 353 13 14 177 151 210 226 175 95 220 230 152 171 156 171 225 221 220 215 212
36 39 45 244 213 172 188 180 179 180 189 196 173 177 185 259 287 304 310 310 308 310 313 311 307 276 287 66 4 189 160 119 115 87 93 83 172 110 321 115 172 228 240 236 122 187 154
44 41 42 47 50 64 63 88 230 198 186 190 195 195 185 249 280 306 303 297 285 284 277 287 265 270 206 137 189 84 283 174 129 107 86 126 123 112 169 215 213 206 258 216 208 206 168
37 41 47 40 47 45 50 53 56 54 21 199 213 194 230 262 284 305 305 293 222 237 220 249 257 256 158 158 132 177 88 158 185 141 131 168 190 205 219 219 230 246 229 235 258 149 224
31 33 37 47 42 43 39 49 51 42 48 41 261 215 225 277 296 308 321 228 202 171 213 277 348 342 116 99 186 155 101 171 167 200 196 188 215 212 223 227 262 294 296 272 221 136 280
22 28 26 28 39 43 39 30 39 39 37 39 34 333 216 217 250 299 281 20 12 9 254 219 248 272 256 279 174 175 181 193 199 203 182 181 225 231 236 293 216 249 260 262 271 102 244
21 21 20 26 17 25 33 33 29 32 31 29 24 9 270 214 211 266 331 76 58 231 258 203 203 226 212 191 230 176 188 200 209 218 205 231 222 251 181 197 214 235 247 257 264 294 236
347 4 12 24 30 40 29 25 28 27 25 16 12 7 357 266 180 171 205 138 98 279 263 206 203 195 166 190 219 90 210 209 203 223 218 244 221 161 210 230 219 249 238 254 270 281 272
346 332 347 358 4 25 34 18 18 19 18 11 3 356 351 215 122 185 44 80 304 299 242 102 144 110 152 211 117 161 17 198 210 184 185 190 192 209 223 225 209 253 28 240 260 261 290
301 315 325 322 335 346 354 358 13 10 12 5 358 351 337 358 32 38 95 86 37 133 235 156 130 169 158 192 120 100 179 126 338 220 235 274 37 223 226 66 235 133 121 120 222 276 261
276 274 285 304 306 314 331 327 332 3 357 1 347 342 338 321 360 72 86 155 166 200 111 157 161 179 200 173 180 191 180 187 193 196 227 215 219 159 182 132 127 204 193 238 236 200 253
257 271 266 272 284 284 275 300 309 320 351 356 346 323 331 289 340 234 150 118 207 205 191 79 127 151 191 161 204 200 206 214 218 227 271 214 226 185 183 218 192 199 204 211 236 242 267
260 250 256 255 268 276 292 293 292 304 328 316 321 268 277 249 175 289 188 207 221 209 263 155 148 197 186 196 233 195 225 238 220 221 222 217 233 190 201 211 217 173 221 248 269 305 283
240 229 257 258 233 262 248 273 280 285 298 288 303 275 247 148 183 198 208 235 215 159 94 213 221 244 207 180 194 200 196 243 228 230 229 253 264 158 131 186 248 239 314 205 217 230 237
251 248 237 232 238 228 245 252 262 284 256 208 230 232 119 188 189 216 227 235 242 177 191 235 188 182 230 143 230 194 235 145 214 120 213 235 240 141 173 209 206 187 219 225 249 228 245
259 265 250 239 227 228 219 224 241 249 291 178 209 223 112 183 188 205 227 212 231 228 217 231 248 254 232 180 232 235 232 225 137 155 169 218 255 244 241 231 266 263 226 218 219 222 241
256 257 255 241 237 224 221 217 206 235 216 178 229 233 93 214 208 215 228 229 238 227 218 224 224 229 230 254 247 255 248 64 78 48 45 348 235 244 255 228 193 249 234 246 242 247 234
262 260 250 244 237 223 215 214 214 207 224 214 193 198 152 224 256 238 218 222 221 223 241 229 232 234 225 236 233 253 267 83 39 72 46 92 224 237 241 274 11 218 236 235 231 237 242
260 256 251 244 239 230 219 209 208 213 209 194 223 224 197 194 219 220 226 221 216 216 216 214 227 230 223 226 212 216 216 259 250 268 263 195 236 237 257 269 276 274 272 258 239 240 235
266 254 251 240 234 231 229 214 208 211 197 210 191 196 204 273 214 203 217 225 227 215 189 212 231 227 227 234 233 248 267 270 279 24 241 178 243 268 274 268 266 266 264 260 254 253 258
274 267 254 246 241 231 229 221 211 207 205 199 173 308 287 224 219 205 213 220 228 219 220 238 240 232 231 237 275 287 139 187 184 140 13 309 274 243 253 285 333 255 242 250 249 248 250
271 270 265 256 247 238 229 222 213 203 214 216 168 127 201 228 215 217 222 223 228 219 217 214 224 215 114 79 37 274 257 250 246 237 229 230 243 267 285 308 256 262 317 295 281 262 257
266 265 262 259 255 244 233 223 219 205 205 217 195 187 198 243 212 223 222 215 225 224 227 237 222 336 111 137 149 265 235 238 229 230 226 227 221 246 245 256 278 283 277 262 273 279 280
264 256 258 253 255 254 245 225 218 216 207 209 213 196 177 244 225 223 222 228 206 201 159 187 47 23 169 114 151 215 229 285 249 224 219 235 230 226 240 253 265 275 279 271 260 255 42
254 261 256 261 254 246 277 229 220 213 207 199 200 197 192 218 233 216 207 201 198 201 226 125 160 147 252 202 227 232 235 203 233 226 185 177 194 229 242 245 247 276 332 293 236 294 320
257 256 258 252 253 250 242 273 219 213 211 202 195 192 190 214 231 215 222 224 215 211 209 131 139 174 186 211 219 216 236 225 227 242 242 238 237 230 232 248 257 151 25 251 327 295 271
264 260 259 254 250 252 245 240 244 212 206 205 189 192 191 191 265 215 222 219 213 209 206 177 135 138 188 205 204 215 222 222 226 246 225 238 232 249 229 245 220 297 233 282 265 255 251